Voltar ao catálogo

GLOBAL-2

AtivoComunicaçõesSSO
NORAD 43812·PAYLOAD·🇺🇸 United States

Lançado Dec 3, 2018 de Vandenberg Space Force Base

Loading…

Próximas Passagens (próximas 24 horas)

TLE

AtualizadoSource: Space-Track

Época: Sep 14, 2026, 12:49 UTC

1 43812U 18099BG  26257.53435471  .00001796  00000-0  11710-3 0  9995
2 43812  97.3496 290.3279 0005252 190.9722 169.1393 15.09097786425380

Acompanhe GLOBAL-2 em tempo real com AllMySat

Download on the App Store